sat.trackr.live / text

‹ back to catalog

STARLINK-33806

NORAD 63723 · 2025-087AC

PAYLOAD ACTIVE UNKNOWN

§ Identity

Operator
Country
US
Launch date
2025-04-28
Launch site
AFWTR
Launch vehicle
Mass (kg)
RCS (m²)

Purposes: comms

External: N2YO · Heavens-Above · Gunter

§ Orbital elements

Epoch: 2026-09-20T12:54:35.794656Z

Period
93.85 min
Inclination
53.1585°
Eccentricity
0.0000979
Mean motion
15.34400317 rev/d
Perigee alt
462.0 km
Apogee alt
463.4 km
Semi-major
6,840.8 km
B*
6.6874e-4
RAAN
33.6606°
Arg perigee
78.5778°
Mean anomaly
281.5334°
Rev number
7,904

§ Raw data

STARLINK-338061 63723U 25087AC  26263.53791429  .00022285  00000+0  66874-3 0  99942 63723  53.1585  33.6606 0000979  78.5778 281.5334 15.34400317 79045

JSON: /api/v1/satellites/63723 · /tle

For live sub-satellite position, see the globe view (requires WebGL).

§ Visibility from observer

Set your observer location to see the next 7 days of passes ≥ 10°. The values pass through the URL so the page stays shareable.

No JS? Fill the form by hand. The geolocation button needs JavaScript.